Wind_Speed
11 9 8 10 10 10 9 9 10 11 12 13 13 14 12 11 10 8 7 7 7 7 7 7 7 8 8 7 7 7 7 7 8 8 8 8 9 10 10 11 11 12 13 14
10 9 10 10 10 10 9 9 10 10 11 12 13 13 12 10 7 6 4 3 5 6 5 5 7 6 5 6 5 5 5 6 7 7 7 7 8 8 8 9 10 11 13 14
10 10 11 10 10 9 9 9 10 11 11 12 13 12 10 8 6 4 2 3 4 3 3 3 4 4 3 3 3 3 3 4 5 5 5 6 7 7 8 9 10 11 12 13
11 11 11 10 9 10 9 9 10 11 11 11 11 11 8 7 4 2 0 2 4 3 3 2 2 2 2 2 1 2 2 3 4 4 5 6 6 7 7 8 9 10 11 12
11 11 11 9 9 10 9 9 10 10 10 10 10 9 7 4 2 0 1 2 3 2 2 2 2 2 2 1 1 0 1 2 3 3 4 4 5 6 6 8 9 10 11 12
12 11 10 10 9 10 10 10 10 9 9 8 8 8 5 4 2 2 3 3 2 2 3 3 3 2 2 2 1 1 1 2 2 3 3 4 5 6 7 8 9 10 11 12
12 11 10 10 10 10 10 11 10 8 8 8 8 7 4 3 2 3 3 4 4 3 4 4 4 3 3 2 1 1 1 1 2 3 3 4 5 6 8 9 10 11 12 13
12 11 11 10 10 10 10 10 10 10 9 8 7 6 3 2 2 3 3 4 5 5 4 4 4 4 4 3 2 1 0 1 2 2 3 4 5 7 8 9 10 12 13 14
13 12 11 10 11 11 10 10 9 9 8 8 6 4 4 3 3 3 4 4 6 5 5 4 5 5 4 4 2 1 0 1 1 2 3 4 6 7 9 10 11 13 14 16
14 13 11 12 12 12 11 10 10 10 9 6 5 5 6 6 5 5 5 6 6 6 6 6 5 5 5 4 3 2 1 1 2 2 3 5 6 8 10 11 12 14 15 17
15 14 12 13 12 13 12 12 11 11 10 9 7 6 8 8 7 7 7 7 8 8 7 7 6 5 5 4 3 3 2 2 2 3 4 5 7 9 11 12 14 16 17 19
17 15 15 15 14 14 14 13 13 13 12 11 10 8 9 9 9 9 8 8 8 9 9 8 7 6 5 5 4 3 3 3 3 4 5 6 8 10 12 14 16 17 19 20
20 18 17 17 16 16 15 15 15 15 15 14 12 9 10 11 10 9 9 9 9 10 10 9 8 7 7 6 5 4 4 4 4 5 6 8 9 11 13 15 17 19 20 22
22 20 19 17 17 17 16 16 16 16 15 14 12 11 12 12 12 11 11 11 11 11 10 10 9 9 8 7 6 6 6 5 5 6 8 9 11 13 15 17 18 20 22 23
22 20 19 19 18 18 17 16 16 16 16 15 13 13 13 12 13 13 12 13 12 12 11 11 11 10 9 8 7 7 7 7 7 8 9 11 13 14 16 18 19 21 23 24
21 19 20 20 20 21 19 17 17 17 16 15 13 12 13 13 13 13 13 13 14 13 13 12 12 11 10 9 9 9 9 9 9 10 11 13 14 16 18 20 21 23 24 25
21 21 21 21 21 22 20 17 18 18 16 15 14 12 13 14 14 14 14 15 15 14 14 14 13 12 11 10 10 11 11 11 11 12 13 15 16 18 20 21 23 24 25 27
22 22 22 21 21 22 17 18 19 18 17 16 15 14 15 14 15 16 16 16 16 15 15 15 14 13 12 12 12 12 13 13 14 15 16 17 19 20 22 23 24 26 27 28
20 21 22 21 22 20 18 19 19 19 18 17 15 16 16 16 16 16 16 16 16 16 17 16 16 15 14 14 14 14 15 15 16 17 18 19 21 22 24 25 26 28 29 30
21 21 22 21 20 19 17 19 20 20 18 17 17 17 17 17 18 17 17 18 17 17 17 17 17 16 16 16 16 16 16 17 18 19 20 22 23 24 25 27 28 29 30 30
21 23 22 20 20 18 17 17 18 19 17 18 19 19 18 18 19 20 20 20 19 18 18 18 18 18 18 18 18 18 18 19 20 21 23 24 25 26 27 29 30 31 31 32
20 20 20 19 20 18 18 18 19 19 19 20 20 20 19 19 20 21 22 21 20 20 19 19 19 19 19 19 20 20 21 21 22 23 24 26 27 28 29 30 31 32 33 33
20 19 19 18 17 17 18 19 19 20 20 21 20 20 20 20 20 22 22 22 21 21 21 20 21 21 21 21 22 22 23 23 24 25 26 28 29 30 31 32 33 34 34 35
19 20 20 19 18 18 18 18 19 19 20 21 21 21 22 22 22 23 23 23 22 21 21 22 22 22 22 23 23 24 24 25 26 27 28 30 31 32 33 33 34 35 36 36
20 20 21 19 18 18 18 18 18 19 19 19 20 21 22 22 22 22 22 22 22 22 22 22 23 23 23 24 24 25 26 27 28 29 30 32 32 33 34 35 36 36 37 38
20 20 20 18 18 18 19 19 19 19 19 20 20 21 22 23 22 23 23 23 22 23 24 24 24 25 25 26 26 27 28 29 29 31 32 33 34 35 35 36 37 38 39 39
Wind_Direction
275 276 282 286 290 297 307 314 320 322 320 322 321 318 315 312 304 297 286 262 245 238 237 238 233 226 219 221 227 233 245 255 267 273 274 275 277 281 286 290 292 294 295 295
262 262 271 279 287 297 308 315 322 321 324 326 324 321 319 314 309 296 284 239 221 226 240 232 221 219 221 219 228 237 246 258 268 276 278 284 286 291 296 299 301 301 301 300
250 256 265 275 287 296 304 318 324 322 324 324 324 324 323 322 321 307 281 216 209 211 209 194 198 196 199 204 219 242 261 272 280 283 287 293 298 301 301 306 310 310 307 305
246 252 258 266 281 289 302 314 319 319 322 325 325 327 321 320 322 334 88 167 179 173 190 204 190 193 189 178 214 269 276 279 286 290 295 301 308 311 313 316 319 318 316 313
244 250 256 263 278 286 294 306 313 315 320 322 325 327 329 317 314 255 160 156 161 172 201 209 183 183 197 198 195 262 309 306 305 313 316 318 322 327 328 330 331 329 326 322
241 251 258 264 277 286 291 296 305 313 317 318 324 322 323 307 278 219 220 210 193 194 198 200 186 182 187 186 191 282 331 332 332 343 349 347 344 343 341 339 338 335 332 329
240 248 258 265 274 282 287 292 299 310 318 317 314 313 312 297 267 248 241 226 219 213 213 205 193 193 197 197 215 260 326 349 354 4 8 1 357 353 348 344 342 340 337 334
239 241 254 264 270 275 285 292 296 306 318 318 307 304 299 282 263 257 257 242 231 223 221 216 211 206 211 219 224 230 320 4 13 14 7 4 2 357 352 348 346 343 341 338
243 238 243 255 263 268 276 286 295 300 311 316 305 295 270 272 273 268 266 254 235 227 219 220 216 215 221 229 227 223 296 346 356 356 357 1 359 356 353 349 346 344 342 340
235 233 236 252 260 263 270 278 285 294 300 303 292 282 271 267 274 263 258 258 243 231 224 224 226 224 223 224 225 244 282 304 319 331 345 350 353 352 350 347 345 342 340 338
233 235 236 249 257 264 265 271 278 282 286 287 277 269 268 268 268 265 257 257 246 236 227 223 224 223 224 227 228 240 268 284 303 321 337 343 346 345 345 344 342 340 337 335
234 238 241 249 256 262 266 268 271 275 276 275 269 261 262 264 261 259 257 252 242 235 230 227 227 227 229 232 233 244 264 278 295 317 332 337 339 339 339 339 338 337 336 334
236 242 245 248 254 260 264 267 269 272 271 270 266 255 253 258 258 255 252 250 242 236 234 234 233 232 235 237 242 252 267 279 293 311 324 330 332 332 334 335 335 335 334 333
240 244 247 250 257 261 263 266 270 271 271 267 260 251 250 252 253 251 250 248 246 242 238 238 239 239 240 242 248 258 267 278 290 304 314 322 325 328 330 330 331 331 330 330
241 243 246 250 254 259 263 267 270 269 267 264 259 251 248 251 252 252 251 248 245 244 243 241 242 243 242 244 251 259 267 276 288 299 309 317 322 323 324 325 326 327 328 328
241 244 244 250 255 258 262 265 268 266 262 260 257 252 248 252 252 252 253 251 247 246 246 246 246 245 245 247 253 261 269 277 288 299 306 312 316 318 320 321 323 324 325 326
241 245 248 252 255 258 261 264 266 264 260 256 253 250 248 249 249 249 252 251 248 247 247 247 248 246 247 251 257 264 271 279 287 296 302 306 309 313 316 318 320 322 323 323
237 240 245 251 256 258 262 263 263 263 260 258 254 251 253 251 249 249 249 249 248 248 248 248 248 248 252 257 262 267 274 279 286 293 298 302 306 310 313 315 317 319 321 322
238 243 247 251 256 261 260 261 261 261 257 254 253 251 254 254 252 251 250 250 250 250 249 249 250 252 256 262 267 272 277 282 288 292 296 300 304 308 310 313 315 316 318 319
239 244 249 250 255 260 260 259 259 258 257 253 252 251 253 254 255 255 254 254 254 253 253 252 253 256 260 264 268 273 278 284 289 292 296 299 303 306 309 311 313 315 316 317
242 243 248 250 253 256 260 259 258 257 257 252 250 250 250 253 254 252 252 253 256 255 255 255 257 260 264 267 270 275 280 284 288 292 295 298 301 304 307 310 312 313 315 315
242 242 244 249 252 256 257 258 259 257 251 250 250 249 249 250 251 250 250 253 255 257 259 259 259 261 265 269 272 276 280 284 288 291 295 297 300 303 306 308 311 312 313 314
238 241 243 247 255 255 256 256 257 257 252 249 250 249 247 247 251 250 251 253 254 256 259 262 262 263 266 270 274 277 281 285 288 291 294 296 299 302 304 307 309 311 312 313
237 241 244 249 251 253 255 255 256 255 253 250 250 249 247 250 251 252 255 255 255 258 260 262 264 265 267 272 276 280 284 286 288 291 293 295 298 301 303 305 307 309 310 312
241 244 247 252 254 252 249 250 250 249 251 252 251 248 247 251 250 250 253 256 257 259 260 262 264 266 270 274 277 280 284 286 288 290 293 295 297 300 302 304 306 307 309 310
243 244 246 248 249 248 247 247 247 247 247 251 252 249 249 249 249 250 252 255 257 258 259 262 264 267 270 274 277 282 284 286 288 290 292 295 297 299 300 302 303 305 307 308
Height
5864 5865 5864 5864 5863 5863 5862 5860 5858 5856 5853 5851 5849 5846 5843 5842 5841 5840 5840 5840 5839 5840 5840 5841 5843 5844 5847 5848 5850 5851 5852 5853 5854 5854 5854 5854 5854 5854 5853 5853 5852 5852 5851 5851
5862 5863 5863 5862 5862 5861 5860 5858 5856 5854 5852 5849 5847 5844 5842 5840 5840 5839 5838 5838 5838 5839 5839 5840 5842 5844 5845 5847 5849 5850 5851 5851 5851 5852 5852 5852 5852 5851 5851 5851 5850 5849 5848 5848
5859 5861 5860 5860 5860 5859 5858 5857 5855 5853 5850 5848 5846 5844 5842 5840 5839 5838 5837 5837 5838 5839 5839 5840 5842 5844 5845 5846 5847 5848 5849 5849 5849 5850 5850 5850 5850 5849 5849 5848 5848 5847 5846 5845
5857 5857 5858 5858 5857 5856 5856 5855 5853 5851 5849 5847 5846 5843 5842 5840 5839 5838 5838 5838 5838 5839 5840 5840 5842 5843 5844 5845 5846 5847 5847 5847 5848 5848 5848 5848 5848 5847 5847 5846 5845 5844 5843 5842
5855 5855 5855 5855 5855 5854 5854 5853 5852 5850 5848 5847 5845 5843 5842 5839 5839 5839 5839 5839 5839 5840 5840 5841 5842 5843 5844 5845 5845 5846 5846 5846 5846 5846 5846 5846 5846 5846 5845 5844 5844 5842 5841 5840
5852 5852 5853 5853 5853 5852 5852 5851 5851 5849 5848 5847 5845 5843 5841 5839 5839 5839 5840 5840 5840 5841 5841 5841 5842 5843 5844 5844 5845 5845 5846 5846 5846 5845 5845 5845 5845 5844 5844 5843 5842 5841 5839 5838
5849 5850 5850 5850 5850 5850 5850 5850 5850 5848 5847 5846 5844 5842 5842 5840 5839 5839 5840 5840 5840 5841 5841 5842 5842 5843 5844 5844 5845 5845 5845 5845 5845 5844 5844 5844 5844 5843 5842 5841 5840 5839 5837 5835
5846 5847 5847 5848 5848 5848 5848 5848 5848 5847 5846 5845 5843 5842 5842 5841 5840 5839 5839 5839 5840 5840 5841 5841 5842 5842 5843 5843 5844 5844 5844 5844 5844 5844 5843 5843 5842 5842 5841 5839 5838 5836 5835 5833
5843 5844 5845 5845 5845 5846 5845 5845 5846 5845 5844 5843 5842 5842 5842 5841 5840 5840 5839 5839 5839 5840 5840 5841 5841 5841 5842 5843 5843 5843 5843 5843 5843 5843 5842 5842 5841 5840 5839 5837 5836 5834 5832 5830
5839 5840 5842 5842 5842 5843 5843 5843 5843 5843 5842 5842 5842 5841 5841 5840 5840 5840 5840 5840 5839 5840 5840 5840 5840 5840 5841 5841 5842 5842 5842 5842 5842 5841 5841 5840 5839 5838 5837 5835 5833 5831 5829 5827
5835 5837 5838 5839 5839 5839 5840 5841 5840 5840 5840 5840 5840 5842 5840 5840 5839 5839 5839 5839 5838 5839 5839 5839 5840 5840 5840 5840 5840 5841 5841 5840 5840 5840 5839 5838 5837 5836 5834 5833 5831 5828 5826 5823
5831 5833 5834 5835 5836 5836 5836 5837 5837 5838 5838 5837 5838 5842 5838 5838 5837 5837 5837 5837 5837 5838 5838 5839 5839 5839 5839 5839 5839 5839 5839 5839 5838 5838 5837 5836 5835 5833 5832 5830 5828 5825 5822 5819
5826 5828 5830 5831 5833 5833 5833 5833 5834 5834 5835 5834 5835 5839 5836 5835 5835 5835 5836 5836 5836 5837 5837 5837 5837 5837 5837 5837 5837 5837 5837 5837 5836 5835 5834 5833 5832 5830 5829 5826 5824 5821 5819 5815
5821 5823 5825 5827 5828 5828 5828 5829 5829 5830 5830 5831 5832 5834 5834 5833 5833 5833 5834 5834 5834 5835 5835 5835 5835 5835 5835 5835 5835 5835 5834 5834 5833 5832 5831 5830 5829 5827 5825 5823 5820 5818 5815 5811
5815 5817 5820 5822 5822 5823 5824 5825 5825 5825 5826 5827 5829 5829 5831 5831 5831 5831 5831 5831 5832 5832 5832 5833 5833 5833 5832 5832 5832 5832 5832 5831 5830 5829 5828 5827 5825 5823 5821 5819 5816 5814 5810 5807
5810 5812 5814 5816 5818 5818 5819 5820 5820 5821 5822 5823 5824 5826 5827 5827 5827 5828 5828 5828 5829 5829 5830 5830 5830 5829 5829 5829 5829 5829 5828 5827 5827 5826 5824 5823 5821 5819 5817 5815 5812 5809 5805 5802
5804 5807 5809 5811 5812 5812 5814 5816 5816 5817 5817 5819 5820 5823 5823 5823 5824 5824 5825 5825 5825 5826 5826 5826 5826 5826 5826 5825 5825 5825 5824 5824 5823 5822 5820 5819 5817 5815 5813 5810 5807 5804 5800 5796
5799 5801 5803 5805 5807 5807 5813 5811 5811 5812 5813 5814 5816 5817 5818 5819 5820 5820 5821 5821 5822 5822 5822 5822 5822 5822 5822 5821 5821 5821 5820 5819 5818 5817 5816 5814 5812 5810 5807 5804 5801 5798 5794 5790
5793 5796 5798 5799 5801 5802 5806 5806 5806 5807 5809 5810 5812 5813 5814 5815 5815 5816 5817 5817 5817 5817 5818 5818 5818 5817 5817 5817 5817 5816 5816 5815 5813 5812 5811 5809 5807 5804 5801 5798 5795 5792 5788 5784
5788 5790 5793 5794 5795 5798 5801 5801 5801 5803 5804 5806 5807 5808 5809 5810 5811 5812 5812 5812 5812 5813 5813 5813 5813 5812 5812 5812 5812 5811 5811 5809 5808 5807 5805 5803 5801 5798 5795 5792 5789 5785 5781 5777
5782 5784 5787 5788 5790 5793 5795 5795 5796 5798 5801 5801 5801 5803 5804 5805 5806 5807 5807 5807 5807 5807 5807 5807 5807 5807 5807 5807 5806 5806 5805 5804 5803 5801 5799 5797 5794 5792 5789 5786 5782 5779 5775 5771
5776 5779 5781 5783 5785 5789 5789 5789 5791 5792 5793 5794 5795 5796 5798 5799 5799 5800 5801 5801 5802 5802 5802 5802 5802 5802 5801 5801 5801 5800 5799 5798 5797 5795 5793 5790 5788 5785 5782 5779 5775 5771 5767 5763
5771 5775 5776 5779 5782 5782 5782 5783 5784 5785 5786 5787 5789 5790 5791 5792 5793 5793 5794 5795 5795 5796 5796 5796 5796 5796 5795 5795 5794 5794 5793 5791 5790 5788 5786 5783 5781 5778 5775 5771 5768 5764 5759 5755
5766 5768 5771 5773 5774 5775 5776 5776 5777 5778 5779 5781 5783 5784 5785 5786 5787 5787 5788 5789 5789 5789 5790 5790 5789 5789 5789 5788 5788 5787 5786 5785 5783 5781 5779 5776 5773 5770 5767 5763 5759 5756 5751 5747
5760 5763 5764 5766 5768 5769 5769 5770 5771 5772 5773 5775 5776 5777 5778 5779 5780 5781 5781 5782 5782 5783 5783 5783 5783 5783 5782 5782 5781 5780 5779 5777 5775 5773 5771 5768 5765 5762 5759 5755 5751 5747 5743 5738
5755 5757 5759 5760 5762 5763 5764 5764 5766 5767 5767 5768 5769 5770 5772 5773 5773 5774 5775 5775 5776 5776 5776 5776 5776 5776 5775 5774 5773 5772 5771 5769 5768 5765 5763 5760 5757 5754 5750 5746 5743 5738 5734 5729